{"data":{"norad_id":49734,"epoch":"2026-09-20T05:14:20.651712Z","epoch_age_seconds":69617,"freshness":"FRESH","line1":"1 49734U 21115L   26263.21829458 -.00000118  00000+0  79771-5 0  9991","line2":"2 49734  53.1609 341.2343 0001168  79.2241 280.8892 15.31698402265092","mean_motion":15.31698402,"eccentricity":0.0001168,"inclination_deg":53.1609,"raan_deg":341.2343,"arg_perigee_deg":79.2241,"mean_anomaly_deg":280.8892,"bstar":7.9771e-6,"rev_number":26509,"period_min":94.013286043763,"perigee_km":469.94480939521,"apogee_km":471.54470817406,"semimajor_km":6848.8817587846,"source":"CELESTRAK","updated_at":"2026-09-20T09:00:39.404571Z"}}